{"data":{"norad_id":58169,"epoch":"2026-09-20T13:12:47.665152Z","epoch_age_seconds":136054,"freshness":"FRESH","line1":"1 58169U 23166V   26263.55055168  .00003272  00000+0  10800-3 0  9996","line2":"2 58169  53.1622  33.7801 0001113  95.3835 264.7295 15.34377955163027","mean_motion":15.34377955,"eccentricity":0.0001113,"inclination_deg":53.1622,"raan_deg":33.7801,"arg_perigee_deg":95.3835,"mean_anomaly_deg":264.7295,"bstar":0.000108,"rev_number":16302,"period_min":93.849106428279,"perigee_km":462.0073705659,"apogee_km":463.53015618883,"semimajor_km":6840.9057633774,"source":"CELESTRAK","updated_at":"2026-09-21T09:00:33.824883Z"}}